Weather History for KRSV - February, 2013

Change the Weather History Date:

Saturday, February 2, 2013

  Actual Average (KLWV) Record (KLWV)
Temperature  
Mean Temperature 29 °F 32 °F  
Max Temperature 35 °F 41 °F 59 °F (2003)
Min Temperature 23 °F 24 °F 7 °F (2001)
Degree Days  
Heating Degree Days 36 33  
Month to date heating degree days 66  
Since 1 July heating degree days 2917  
Cooling Degree Days 0 0  
Month to date cooling degree days 0  
Year to date cooling degree days 0  
Moisture  
Dew Point 22 °F    
Average Humidity 75    
Maximum Humidity 89    
Minimum Humidity 63    
Precipitation  
Precipitation 0.00 in 0.07 in 1.52 in (1986)
Month to date precipitation 0.14  
Year to date precipitation 2.52  
Sea Level Pressure  
Sea Level Pressure 30.13 in    
Wind  
Wind Speed 10 mph (WSW)    
Max Wind Speed 14 mph    
Max Gust Speed 20 mph    
Visibility 8 miles    
Events Snow    
T = Trace of Precipitation, MM = Missing Value Source: NWS Daily Summary

Daily Weather History Graph

Daily Weather History Graph

Search for Another Location

Airport or City:

Trip Planner

Search our weather history database for the weather conditions in past years. The results will help you decide how hot, cold, wet, or windy it might be!

Date:

Astronomy

Feb. 02, 2013 Rise Set
Actual Time 6:55 AM CST 5:13 PM CST
Civil Twilight 6:27 AM CST 5:41 PM CST
Nautical Twilight 5:55 AM CST 6:13 PM CST
Astronomical Twilight 5:24 AM CST 6:44 PM CST
Moon No Moon Rise 10:10 AM CST (2/2)
Length of Visible Light 11h 13m
Length of Day
10h 17m
Waning Gibbous, 59% of the Moon is Illuminated
Feb 2
Waning Gibbous
Feb 3
Last Quarter
Feb 10
New
Feb 17
First Quarter
Feb 25
Full

Hourly Weather History & Observations

Time (CST) Temp. Windchill Dew Point Humidity Pressure Visibility Wind Dir Wind Speed Gust Speed Precip Events Conditions
12:15 AM 24.8 °F 14.0 °F 16.3 °F 70% 30.29 in 7.0 mi South 11.5 mph - N/A Snow Light Snow
12:35 AM 23.9 °F 13.5 °F 18.5 °F 80% 30.29 in 2.5 mi South 10.4 mph - N/A Snow Light Snow
12:55 AM 23.9 °F 13.5 °F 19.4 °F 83% 30.28 in 2.0 mi South 10.4 mph - N/A Snow Light Snow
1:15 AM 24.1 °F 13.7 °F 19.9 °F 84% 30.27 in 2.5 mi South 10.4 mph - N/A Snow Light Snow
1:35 AM 24.1 °F 15.2 °F 20.1 °F 85% 30.26 in 2.5 mi South 8.1 mph - N/A Snow Light Snow
1:55 AM 23.9 °F 13.5 °F 20.3 °F 86% 30.25 in 3.0 mi South 10.4 mph - N/A Snow Light Snow
2:15 AM 24.1 °F 13.7 °F 20.5 °F 86% 30.25 in 2.0 mi South 10.4 mph - N/A Snow Light Snow
2:35 AM 24.3 °F 13.3 °F 20.7 °F 86% 30.25 in 1.8 mi South 11.5 mph - N/A Snow Light Snow
2:55 AM 24.4 °F 14.9 °F 21.2 °F 87% 30.24 in 2.0 mi SSW 9.2 mph - N/A Snow Light Snow
3:15 AM 24.6 °F 15.1 °F 21.7 °F 89% 30.22 in 1.5 mi South 9.2 mph - N/A Snow Light Snow
3:35 AM 24.8 °F 15.3 °F 21.4 °F 87% 30.21 in 7.0 mi South 9.2 mph - N/A Snow Light Snow
3:55 AM 25.3 °F 16.0 °F 21.0 °F 84% 30.22 in 7.0 mi SSW 9.2 mph - N/A   Overcast
4:15 AM 25.5 °F 15.5 °F 20.8 °F 82% 30.20 in 10.0 mi South 10.4 mph - N/A   Overcast
4:35 AM 25.7 °F 17.1 °F 20.8 °F 82% 30.19 in 10.0 mi South 8.1 mph - N/A   Overcast
4:55 AM 25.7 °F 16.4 °F 21.0 °F 82% 30.17 in 10.0 mi SE 9.2 mph - N/A   Overcast
5:15 AM 25.5 °F 14.9 °F 20.8 °F 82% 30.16 in 10.0 mi SSE 11.5 mph - N/A   Overcast
5:35 AM 26.2 °F 15.2 °F 20.1 °F 78% 30.14 in 10.0 mi SSE 12.7 mph - N/A   Overcast
5:55 AM 26.2 °F 19.6 °F 19.8 °F 76% 30.15 in 10.0 mi South 5.8 mph - N/A   Overcast
6:15 AM 26.6 °F 19.1 °F 19.4 °F 74% 30.15 in 10.0 mi South 6.9 mph - N/A   Overcast
6:35 AM 27.3 °F 20.9 °F 19.0 °F 71% 30.14 in 10.0 mi South 5.8 mph - N/A   Overcast
6:55 AM 26.6 °F 20.0 °F 18.5 °F 71% 30.14 in 10.0 mi South 5.8 mph - N/A   Mostly Cloudy
7:15 AM 27.1 °F 20.7 °F 18.5 °F 70% 30.14 in 10.0 mi South 5.8 mph - N/A   Mostly Cloudy
7:35 AM 28.2 °F 21.0 °F 18.5 °F 67% 30.13 in 10.0 mi South 6.9 mph - N/A   Overcast
7:55 AM 28.8 °F 19.5 °F 18.9 °F 67% 30.13 in 10.0 mi South 10.4 mph - N/A   Overcast
8:15 AM 29.3 °F 18.6 °F 18.9 °F 65% 30.13 in 10.0 mi South 13.8 mph - N/A   Overcast
8:55 AM 30.2 °F 21.3 °F 19.4 °F 64% 30.11 in 10.0 mi SSW 10.4 mph - N/A   Overcast
9:15 AM 31.1 °F 21.9 °F 19.9 °F 63% 30.11 in 10.0 mi SSW 11.5 mph - N/A   Overcast
9:35 AM 31.3 °F 22.7 °F 20.5 °F 64% 30.11 in 10.0 mi SSW 10.4 mph - N/A   Overcast
9:55 AM 31.6 °F 21.6 °F 21.6 °F 66% 30.11 in 5.0 mi SW 13.8 mph 19.6 mph N/A Snow Light Snow
10:15 AM 31.1 °F 21.4 °F 23.5 °F 74% 30.11 in 5.0 mi SSW 12.7 mph - N/A   Haze
10:35 AM 30.7 °F 22.0 °F 24.8 °F 79% 30.10 in 2.0 mi SSW 10.4 mph - N/A Snow Light Snow
10:55 AM 30.7 °F 22.0 °F 25.7 °F 82% 30.10 in 1.5 mi SSW 10.4 mph - N/A Snow Light Snow
11:15 AM 31.1 °F 23.1 °F 26.4 °F 83% 30.09 in 2.0 mi SSW 9.2 mph - N/A Snow Light Snow
11:35 AM 31.8 °F 23.3 °F 25.5 °F 78% 30.08 in 7.0 mi SW 10.4 mph - N/A Snow Light Snow
11:55 AM 32.0 °F 23.6 °F 25.5 °F 77% 30.07 in 10.0 mi SW 10.4 mph - N/A   Overcast
12:15 PM 32.2 °F 24.4 °F 25.3 °F 76% 30.06 in 10.0 mi SW 9.2 mph - N/A   Overcast
12:35 PM 32.9 °F 25.3 °F 25.2 °F 73% 30.05 in 10.0 mi SW 9.2 mph - N/A   Overcast
12:55 PM 34.2 °F 26.2 °F 25.0 °F 69% 30.05 in 10.0 mi WSW 10.4 mph - N/A   Overcast
1:15 PM 34.3 °F 25.5 °F 25.5 °F 70% 30.06 in 10.0 mi WSW 12.7 mph - N/A   Overcast
1:55 PM 34.9 °F 26.6 °F 24.3 °F 65% 30.05 in 10.0 mi West 11.5 mph 18.4 mph N/A   Overcast
2:15 PM 35.1 °F 25.9 °F 24.1 °F 64% 30.06 in 10.0 mi West 13.8 mph 18.4 mph N/A   Overcast
2:35 PM 34.9 °F 27.1 °F 24.3 °F 65% 30.06 in 10.0 mi West 10.4 mph - N/A   Overcast
3:15 PM 35.2 °F 27.6 °F 24.4 °F 65% 30.07 in 10.0 mi WNW 10.4 mph - N/A   Overcast
3:35 PM 35.1 °F 28.6 °F 25.2 °F 67% 30.07 in 10.0 mi West 8.1 mph - N/A   Overcast
3:55 PM 35.1 °F 31.0 °F 25.2 °F 67% 30.07 in 10.0 mi West 4.6 mph - N/A   Overcast
4:15 PM 34.7 °F 29.6 °F 25.7 °F 70% 30.07 in 10.0 mi WNW 5.8 mph - N/A   Overcast
4:35 PM 34.2 °F 29.0 °F 26.1 °F 72% 30.07 in 10.0 mi WNW 5.8 mph - N/A   Mostly Cloudy
4:55 PM 34.2 °F 26.2 °F 26.6 °F 74% 30.08 in 10.0 mi WNW 10.4 mph - N/A   Scattered Clouds
5:15 PM 33.1 °F 24.9 °F 26.2 °F 76% 30.09 in 10.0 mi NW 10.4 mph - N/A   Scattered Clouds
5:35 PM 32.7 °F 25.0 °F 25.5 °F 75% 30.09 in 10.0 mi NW 9.2 mph - N/A   Mostly Cloudy
5:55 PM 32.0 °F 24.2 °F 25.2 °F 76% 30.10 in 10.0 mi NW 9.2 mph - N/A   Mostly Cloudy
6:15 PM 31.6 °F 25.1 °F 24.4 °F 75% 30.10 in 10.0 mi WNW 6.9 mph - N/A   Scattered Clouds
6:35 PM 30.9 °F 21.7 °F 23.4 °F 74% 30.11 in 10.0 mi WNW 11.5 mph - N/A   Scattered Clouds
6:55 PM 30.9 °F 22.2 °F 23.0 °F 72% 30.11 in 10.0 mi WNW 10.4 mph - N/A   Scattered Clouds
7:15 PM 30.7 °F 20.4 °F 22.5 °F 71% 30.11 in 10.0 mi NW 13.8 mph 18.4 mph N/A   Clear
7:35 PM 28.9 °F 19.8 °F 23.4 °F 80% 30.13 in 10.0 mi NW 10.4 mph - N/A   Scattered Clouds
7:55 PM 28.4 °F 19.7 °F 23.0 °F 80% 30.13 in 10.0 mi NW 9.2 mph - N/A   Scattered Clouds
8:15 PM 28.4 °F 21.2 °F 23.0 °F 80% 30.12 in 10.0 mi NW 6.9 mph - N/A   Mostly Cloudy
8:35 PM 27.5 °F 18.0 °F 21.0 °F 77% 30.12 in 10.0 mi NW 10.4 mph - N/A   Scattered Clouds
8:55 PM 27.1 °F 18.9 °F 20.7 °F 77% 30.13 in 10.0 mi NW 8.1 mph - N/A   Mostly Cloudy
9:15 PM 26.1 °F 18.4 °F 19.9 °F 78% 30.13 in 10.0 mi NW 6.9 mph - N/A   Scattered Clouds
9:35 PM 25.7 °F 19.0 °F 19.4 °F 77% 30.13 in 10.0 mi NW 5.8 mph - N/A   Mostly Cloudy
9:55 PM 25.5 °F 16.9 °F 18.9 °F 76% 30.13 in 10.0 mi NW 8.1 mph - N/A   Overcast
10:15 PM 24.8 °F 19.1 °F 18.5 °F 77% 30.13 in 10.0 mi NW 4.6 mph - N/A   Mostly Cloudy
10:35 PM 24.8 °F 17.9 °F 18.0 °F 75% 30.12 in 10.0 mi NW 5.8 mph - N/A   Overcast
10:55 PM 24.8 °F 16.9 °F 17.6 °F 74% 30.12 in 10.0 mi NW 6.9 mph - N/A   Overcast
11:15 PM 24.1 °F 17.0 °F 17.6 °F 76% 30.11 in 10.0 mi NNW 5.8 mph - N/A   Overcast
11:35 PM 23.9 °F 15.8 °F 17.6 °F 77% 30.11 in 10.0 mi North 6.9 mph - N/A   Overcast
11:55 PM 23.4 °F 17.4 °F 17.2 °F 77% 30.11 in 10.0 mi North 4.6 mph - N/A   Overcast